www.pogodaiklimat.ru

Погода и климат >> Архив погоды >> Россия >> Архангельская область >> Малые Кармакулы


АРХИВ ПОГОДЫ в Малых Кармакулах

Время (UTC), дата Ветер
(напр.,м/с)
 
Видим.   Явления Облачность Т
(С)
Тd
(С)
f
(%)
Тe
(С)
Тes
(С)
Комфортность P
(гПа)
Po
(гПа)
Тmin
(С)
Tmax
(С)
R
(мм)
R24
(мм)
S
(см)
00 10.09 С 10
{14}
20 км {дождь} 8/6 570 м
[Sc Ac trans Ci fib]
+5.9 +3.5 85 -0 -0 1013.1 1011.4
03 10.09 С 9
{16}
20 км 9/9 600 м
[Sc]
+5.2 +3.0 86 -1 -1 1017.7 1016.0 +4.7 1
06 10.09 С 9
{15}
20 км 8/8 630 м
[Sc]
+4.9 -0.4 69 -1 -1 1021.1 1019.4
09 10.09 С 6
{10}
20 км 8/4 600 м
[Sc Ac trans]
+4.5 -1.2 66 -0 0 1023.6 1021.9
12 10.09 С 4 20 км 8/3 600 м
[Sc Ac trans]
+4.1 -0.5 72 -0 0 1024.5 1022.7
15 10.09 С 4 20 км 10/6 720 м
[Sc Ac und]
+3.9 -0.7 72 -0 -0 1024.9 1023.1 +5.2
18 10.09 В 2 20 км 8/3 600 м
[Sc Ac trans Ci fib]
+2.9 -0.4 79 0 0 1024.4 1022.6
21 10.09 ЮВ 2 20 км 10/3 600 м
[Sc Ac und]
+3.2 0.0 80 0 0 1023.0 1021.2
00 11.09 В 3 10 км слаб. дождь 10/4 300 м
[Frnb As op]
+2.3 +1.5 94 -2 -2 1022.1 1020.3
03 11.09 ЮВ 3 4000 м слаб. дождь 10/8 270 м
[Frnb As op]
+2.3 +1.8 96 -2 -2 1021.2 1019.4 +2.2 2
06 11.09 В 6 20 км {дождь} 10/3 300 м
[Sc Ac As]
+4.0 +1.7 85 -1 -1 1019.0 1017.2
09 11.09 ЮВ 5
{10}
20 км 10/8 540 м
[Sc Ac und]
+5.2 +3.3 88 +1 +1 1018.0 1016.3
12 11.09 ЮВ 9
{11}
20 км 9/4 300 м
[Sc Ac trans]
+5.7 +3.6 86 -0 -0 1017.3 1015.6
15 11.09 ЮВ 10
{13}
20 км 10/4 600 м
[Sc Ac und]
+6.6 +4.3 85 +1 +1 1016.1 1014.4 +6.6 0.5
18 11.09 ЮВ 10
{15}
10 км слаб. ливневой дождь 10/4 300 м
[Cb cap Ac und]
+7.5 +5.3 86 +2 +2 1014.2 1012.5
21 11.09 Ю 8
{13}
4000 м слаб. ливневой дождь 10/10 270 м
[Cb cap]
+7.3 +6.4 94 +2 +2 1013.6 1011.9
00 12.09 Ю 8
{12}
4000 м слаб. ливневой дождь 10/10 240 м
[Cb cap]
+8.0 +7.6 97 +3 +3 1012.4 1010.7
03 12.09 Ю 4
{10}
4000 м дымка {ливн. осадки} 10/10 210 м
[St]
+7.9 +7.4 97 +4 +4 1012.1 1010.4 +6.4 2
06 12.09 Ю 4 4000 м дымка {ливн. осадки} 10/10 210 м
[St]
+8.3 +7.8 97 +5 +5 1012.0 1010.3
09 12.09 Ю 3 2000 м слаб. дождь 10/8 180 м
[Frnb As op]
+9.2 +8.8 97 +7 +7 1011.6 1009.9
12 12.09 Ю 2 4000 м дымка {дождь} 10/10 210 м
[St]
+9.9 +9.7 99 +8 +8 1011.0 1009.3
15 12.09 ЮВ 2 4000 м слаб. морось 10/10 270 м
[St]
+10.1 +9.9 99 +8 +8 1010.6 1008.9 +10.1 1
18 12.09 ЮВ 6 20 км {морось} 9/4 300 м
[Sc Ac trans]
+9.3 +8.5 95 +5 +5 1009.9 1008.2
21 12.09 В 6
{11}
20 км 9/8 630 м
[Sc Ac trans]
+9.2 +7.6 90 +5 +5 1009.3 1007.6
00 13.09 В 9
{14}
20 км 8/8 600 м
[Sc Ac trans]
+8.4 +5.8 84 +4 +4 1008.3 1006.6
03 13.09 В 18
{24}
20 км 10/4 600 м
[Sc Ac und]
+8.0 +5.8 86 +1 +1 1007.3 1005.6 +8.0 0.0
06 13.09 В 18
{24}
20 км 10/3 600 м
[Sc Ac und]
+8.0 +5.3 83 +1 +1 1006.8 1005.1
09 13.09 В 18
{24}
20 км 9/3 600 м
[Sc Ac trans]
+8.4 +4.8 78 +2 +2 1006.7 1005.0
12 13.09 В 17
{24}
20 км 9/8 660 м
[Cu Sc Ac trans]
+7.9 +4.5 79 +1 +1 1006.8 1005.1
15 13.09 В 21
{28}
20 км 9/8 700 м
[Cu Sc Ac trans]
+7.1 +4.1 81 -0 -0 1005.5 1003.8 +8.4
18 13.09 ЮВ 23
{30}
20 км 10/4 600 м
[Sc Ac und]
+6.3 +4.0 85 -2 -2 1004.7 1003.0
21 13.09 В 23
{30}
20 км 10/6 630 м
[Sc Ac und]
+6.1 +3.2 82 -2 -2 1004.6 1002.9
00 14.09 В 23
{34}
20 км 9/4 600 м
[Sc Ac trans]
+5.8 +3.2 83 -3 -3 1004.1 1002.4
03 14.09 В 24
{33}
20 км 9/8 300 м
[Cu Sc Ac trans]
+5.1 +2.4 83 -4 -4 1003.8 1002.1 +5.1
06 14.09 В 24
{34}
10 км слаб. ливневой дождь 10/4 300 м
[Cb cap Ac und]
+3.6 +2.1 90 -6 -6 1004.2 1002.4 +3.6
09 14.09 В 24
{33}
10 км слаб. ливневой дождь 10/3 300 м
[Cb cap Ac und]
+4.7 +2.2 84 -4 -4 1004.5 1002.8
12 14.09 В 21
{32}
20 км {ливн. осадки} 10/3 300 м
[Cu hum Ac und]
+4.1 +2.3 88 -5 -5 1005.9 1004.1
15 14.09 В 22
{31}
20 км 10/3 300 м
[Sc Ac und]
+4.7 +2.5 86 -4 -4 1005.8 1004.1 +5.1 0.5
18 14.09 В 19
{29}
10 км слаб. ливневой дождь 10/4 300 м
[Cb cap Ac und]
+4.3 +2.6 89 -4 -4 1006.8 1005.1
21 14.09 В 19
{29}
10 км слаб. ливневой дождь 10/6 420 м
[Cb cap Ac und]
+4.5 +1.7 82 -4 -4 1006.9 1005.2
00 15.09 В 22
{29}
20 км {ливн. осадки} 9/8 600 м
[Cu Sc Ac trans]
+4.7 +0.3 73 -4 -4 1005.8 1004.1
03 15.09 В 24
{33}
20 км 8/4 300 м
[Cu Sc Ac trans]
+3.8 -1.1 70 -5 -5 1004.5 1002.7 +3.8 0.3
06 15.09 В 24
{34}
20 км 6/4 600 м
[Sc Ac trans]
+4.0 -0.9 70 -5 -5 1003.6 1001.8 +3.7
09 15.09 В 24
{34}
20 км 6/3 300 м
[Cu hum Ac trans Ci fib]
+4.7 -1.3 65 -4 -4 1002.9 1001.2
12 15.09 В 24
{34}
20 км 4/0
[Ac trans Ci fib]
+4.7 -2.3 60 -4 -4 1002.4 1000.7
15 15.09 В 22
{33}
20 км 6/3 300 м
[Cu hum Ac trans Ci fib]
+3.7 0.0 77 -5 -5 1001.7 999.9 +4.8
18 15.09 В 20
{33}
20 км 6/3 600 м
[Sc Ac trans]
+3.7 +0.3 78 -5 -5 1001.7 999.9
21 15.09 В 10
{21}
20 км 6/0
[Ac trans]
+3.5 0.0 78 -3 -3 1002.5 1000.7
00 16.09 В 14
{22}
20 км 5/1 600 м
[Sc Ac trans Ci fib]
+3.4 -0.4 76 -4 -4 1001.3 999.5
03 16.09 В 15
{27}
20 км 4/1 600 м
[Sc Ac trans Ci fib]
+3.1 -1.4 72 -5 -5 1001.1 999.3 +3.1
06 16.09 СВ 9
{22}
20 км 6/3 300 м
[Cu hum Ac trans Ci fib]
+3.6 -0.5 75 -3 -3 1001.6 999.8
09 16.09 В 13
{20}
20 км 6/4 300 м
[Cu hum Ac trans Ci fib]
+4.2 -0.3 72 -3 -3 1001.4 999.6
12 16.09 В 10
{19}
20 км {ливн. осадки} 4/3 300 м
[Cu hum Ci fib]
+4.1 -1.4 67 -2 -2 1001.7 999.9
15 16.09 СВ 9
{16}
20 км {ливн. осадки} 4/3 300 м
[Cu hum Ci fib]
+2.2 -0.8 81 -5 -5 1001.7 999.9 +4.4 0.3
18 16.09 СВ 9
{13}
20 км {ливн. осадки} 6/3 300 м
[Cu hum Ac trans Ci fib]
+2.0 -0.2 85 -5 -5 1000.5 998.7
21 16.09 СВ 9
{12}
20 км 6/4 300 м
[Cu hum Ci fib]
+2.0 +0.1 87 -5 -5 999.0 997.2

 

Местоположение метеостанции Малые Кармакулы (Архангельская область, Россия): широта 72.36 долгота 52.71 высота над уровнем моря 14 м.

В архиве по умолчанию представлена погода в Малых Кармакулах за последнюю неделю. Архивные данные за месяц целиком и за предыдущие месяцы, начиная с января 2011 года, Вы можете получить, выбрав интересующий диапазон дат из раскрывающегося списка и нажав кнопку "Ввод!".


*Определитесь, кто Вы:
робот инопланетянин человек

Внимание! Время в таблицах - всемирное. Для получения местного времени необходимо прибавить поправку, которая равна 3 ч.

Смотрите также архив погоды в соседних городах и на ближайших метеорологических станциях:

Погода в Имени Федорова (Ненецкий АО, Россия) (310 км)
Погода на Колгуевом Острове (Ненецкий АО, Россия) (341 км)
Погода в Ходоварихе (Ненецкий АО, Россия) (383 км)
Погода на Мысе Белый Нос (Ненецкий АО, Россия) (409 км)
Погода в Бугрино (Ненецкий АО, Россия) (415 км)
Погода в Амдерме (Ненецкий АО, Россия) (433 км)
Погода в Сенгейском Шаре (Ненецкий АО, Россия) (435 км)
Погода на Мысе Константиновском (Ненецкий АО, Россия) (436 км)
Погода в Варандее (Ненецкий АО, Россия) (440 км)
Погода в Нарьян-Маре (Ненецкий АО, Россия) (526 км)

Пояснения к столбцам:

Ветер - указаны скорость ветра в м/с - средняя за 10 мин, порывы в срок и между сроками (в фигурных скобках) и направление, откуда дует ветер: С - северный, СВ - северо-восточный, В - восточный, ЮВ - юго-восточный, Ю - южный, ЮЗ - юго-западный, З - западный, СЗ - северо-западный.
Видимость - горизонтальная дальность видимости в метрах или километрах. При видимости от 1 до 10 км при отсутствии осадков обычно наблюдается дымка, при ухудшении видимости до 1 км и менее - туман. В сухую погоду видимость может ухудшаться дымом, пылью или мглою.
Явления - указаны атмосферные явления, наблюдавшиеся в срок или в последний час перед сроком; фигурными скобками обозначены явления, наблюдавшиеся между сроками (за 1-3 часа до срока); квадратными скобками обозначены град или гололедные отложения с указанием их диаметра в мм.
Облачность - указаны через наклонную черту общая и нижняя облачность в баллах и высота нижней границы облаков в метрах; квадратными скобками обозначены формы облаков: Ci - перистые, Cs - перисто-слоистые, Cc - перисто-кучевые, Ac - высококучевые, As - высокослоистые, Sc - слоисто-кучевые, Ns - слоисто-дождевые, Cu - кучевые, Cb - кучево-дождевые. Подробнее классификацию облаков см. в Атласе облаков (PDF).
T - Температура воздуха - температура, измеренная на высоте 2 м над землей.
Td - Температура точки росы - температура, при понижении до которой содержащийся в воздухе водяной пар достигнет насыщения.
f - Относительная влажность воздуха - влажноcть воздуха, измеренная на высоте 2 м над землей.
Te - Эффективная температура - температура, которую ощущает одетый по сезону человек в тени. Характеристика душности погоды. При расчете учитывается влияние влажности воздуха и скорости ветра на теплоощущения человека.
Tes - Эффективная температура на солнце - температура, которую ощущает человек, с поправкой на солнечный нагрев. Характеристика знойности погоды. Зависит от высоты солнца над горизонтом, облачности и скорости ветра. Ночью, в пасмурную погоду, а также при ветре 12 м/с и более поправка равна нулю.
P - Атмосферное давление - приведенное к уровню моря атмосферное давление.
Po - Атмосферное давление - измеренное на уровне метеостанции атмосферное давление.
Tmin - Минимальная температура - минимум температуры воздуха на высоте 2 м над землей.
Tmax - Максимальная температура - максимум температуры воздуха на высоте 2 м над землей.
R - Количество осадков - Количество выпавших осадков за период времени, мм. При наведении курсора мыши на число - период времени, за который выпало указанное количество осадков.
R24 - Количество осадков - Количество выпавших осадков за 24 часа, мм.
S - Снежный покров - Высота снежного покрова, см. При наведении курсора мыши на число - состояние снежного покрова и степень покрытия местности в баллах.